Tracking 27420 objects as of 28-May-2023
HD Live streaming from Space Station
objects crossing your sky now

CZ-4 DEB

Track CZ-4 DEB now!
10-day predictions


NORAD ID: 20894
Int'l Code: 1990-081BE
Perigee: 789.4 km
Apogee: 818.5 km
Inclination: 98.5 °
Period: 100.8 minutes
Semi major axis: 7174 km
RCS: 0.0352 m2 (small)
Launch date: September 3, 1990
Source: People's Republic of China (PRC)
Launch site: Taiyaun Space Center, China (TSC)

Note: This is SATELLITE DEBRIS
Your satellite tracking list
Your tracking list is empty




NASA's NSSDC Master Catalog

Two Line Element Set (TLE):
1 20894U 90081BE  23148.00468094  .00001360  00000-0  55914-3 0  9997
2 20894  98.5096 150.0189 0020295   4.3785  55.7288 14.28472982690783
Source of the keplerian elements: AFSPC